Year,Month,Day,Hour,Minute,Value (Times are PST for temperature in C)
2012,05,25,00,00,9.90
2012,05,25,00,01,9.80
2012,05,25,00,02,9.80
2012,05,25,00,03,9.70
2012,05,25,00,04,9.70
2012,05,25,00,05,9.70
2012,05,25,00,06,9.70
2012,05,25,00,07,9.70
2012,05,25,00,08,9.60
2012,05,25,00,09,9.60
2012,05,25,00,10,9.60
2012,05,25,00,11,9.60
2012,05,25,00,12,9.60
2012,05,25,00,13,9.60
2012,05,25,00,14,9.50
2012,05,25,00,15,9.50
2012,05,25,00,16,9.50
2012,05,25,00,17,9.50
2012,05,25,00,18,9.40
2012,05,25,00,19,9.40
2012,05,25,00,20,9.40
2012,05,25,00,21,9.40
2012,05,25,00,22,9.30
2012,05,25,00,23,9.30
2012,05,25,00,24,9.30
2012,05,25,00,25,9.30
2012,05,25,00,26,9.20
2012,05,25,00,27,9.20
2012,05,25,00,28,9.20
2012,05,25,00,29,9.20
2012,05,25,00,30,9.20
2012,05,25,00,31,9.10
2012,05,25,00,32,9.10
2012,05,25,00,33,9.10
2012,05,25,00,34,9.00
2012,05,25,00,35,9.00
2012,05,25,00,36,9.00
2012,05,25,00,37,8.90
2012,05,25,00,38,8.90
2012,05,25,00,39,8.90
2012,05,25,00,40,8.90
2012,05,25,00,41,8.90
2012,05,25,00,42,8.90
2012,05,25,00,43,8.80
2012,05,25,00,44,8.80
2012,05,25,00,45,8.80
2012,05,25,00,46,8.80
2012,05,25,00,47,8.80
2012,05,25,00,48,8.70
2012,05,25,00,49,8.70
2012,05,25,00,50,8.70
2012,05,25,00,51,8.70
2012,05,25,00,52,8.70
2012,05,25,00,53,8.70
2012,05,25,00,54,8.70
2012,05,25,00,55,8.70
2012,05,25,00,56,8.70
2012,05,25,00,57,8.60
2012,05,25,00,58,8.60
2012,05,25,00,59,8.60
2012,05,25,01,00,8.60
2012,05,25,01,01,8.60
2012,05,25,01,02,8.50
2012,05,25,01,03,8.50
2012,05,25,01,04,8.50
2012,05,25,01,05,8.50
2012,05,25,01,06,8.50
2012,05,25,01,07,8.50
2012,05,25,01,08,8.50
2012,05,25,01,09,8.40
2012,05,25,01,10,8.40
2012,05,25,01,11,8.40
2012,05,25,01,12,8.40
2012,05,25,01,13,8.40
2012,05,25,01,14,8.40
2012,05,25,01,15,8.30
2012,05,25,01,16,8.30
2012,05,25,01,17,8.30
2012,05,25,01,18,8.30
2012,05,25,01,19,8.30
2012,05,25,01,20,8.30
2012,05,25,01,21,8.30
2012,05,25,01,22,8.30
2012,05,25,01,23,8.30
2012,05,25,01,24,8.30
2012,05,25,01,25,8.30
2012,05,25,01,26,8.30
2012,05,25,01,27,8.20
2012,05,25,01,28,8.20
2012,05,25,01,29,8.20
2012,05,25,01,30,8.20
2012,05,25,01,31,8.20
2012,05,25,01,32,8.20
2012,05,25,01,33,8.20
2012,05,25,01,34,8.20
2012,05,25,01,35,8.20
2012,05,25,01,36,8.20
2012,05,25,01,37,8.10
2012,05,25,01,38,8.10
2012,05,25,01,39,8.10
2012,05,25,01,40,8.10
2012,05,25,01,41,8.10
2012,05,25,01,42,8.10
2012,05,25,01,43,8.10
2012,05,25,01,44,8.10
2012,05,25,01,45,8.10
2012,05,25,01,46,8.10
2012,05,25,01,47,8.10
2012,05,25,01,48,8.10
2012,05,25,01,49,8.00
2012,05,25,01,50,8.00
2012,05,25,01,51,8.00
2012,05,25,01,52,8.00
2012,05,25,01,53,8.00
2012,05,25,01,54,8.00
2012,05,25,01,55,8.00
2012,05,25,01,56,8.00
2012,05,25,01,57,8.00
2012,05,25,01,58,8.00
2012,05,25,01,59,8.00
2012,05,25,02,00,7.90
2012,05,25,02,01,7.90
2012,05,25,02,02,7.90
2012,05,25,02,03,7.90
2012,05,25,02,04,7.90
2012,05,25,02,05,7.90
2012,05,25,02,06,8.00
2012,05,25,02,07,8.00
2012,05,25,02,08,8.00
2012,05,25,02,09,7.90
2012,05,25,02,10,7.90
2012,05,25,02,11,7.90
2012,05,25,02,12,7.80
2012,05,25,02,13,7.80
2012,05,25,02,14,7.80
2012,05,25,02,15,7.80
2012,05,25,02,16,7.80
2012,05,25,02,17,7.80
2012,05,25,02,18,7.80
2012,05,25,02,19,7.80
2012,05,25,02,20,7.70
2012,05,25,02,21,7.70
2012,05,25,02,22,7.70
2012,05,25,02,23,7.70
2012,05,25,02,24,7.70
2012,05,25,02,25,7.60
2012,05,25,02,26,7.60
2012,05,25,02,27,7.60
2012,05,25,02,28,7.60
2012,05,25,02,29,7.50
2012,05,25,02,30,7.50
2012,05,25,02,31,7.50
2012,05,25,02,32,7.50
2012,05,25,02,33,7.40
2012,05,25,02,34,7.40
2012,05,25,02,35,7.40
2012,05,25,02,36,7.30
2012,05,25,02,37,7.30
2012,05,25,02,38,7.30
2012,05,25,02,39,7.30
2012,05,25,02,40,7.30
2012,05,25,02,41,7.30
2012,05,25,02,42,7.30
2012,05,25,02,43,7.30
2012,05,25,02,44,7.30
2012,05,25,02,45,7.30
2012,05,25,02,46,7.30
2012,05,25,02,47,7.30
2012,05,25,02,48,7.30
2012,05,25,02,49,7.30
2012,05,25,02,50,7.30
2012,05,25,02,51,7.30
2012,05,25,02,52,7.30
2012,05,25,02,53,7.30
2012,05,25,02,54,7.30
2012,05,25,02,55,7.40
2012,05,25,02,56,7.40
2012,05,25,02,57,7.50
2012,05,25,02,58,7.50
2012,05,25,02,59,7.50
2012,05,25,03,00,7.50
2012,05,25,03,01,7.50
2012,05,25,03,02,7.50
2012,05,25,03,03,7.50
2012,05,25,03,04,7.50
2012,05,25,03,05,7.50
2012,05,25,03,06,7.50
2012,05,25,03,07,7.40
2012,05,25,03,08,7.40
2012,05,25,03,09,7.40
2012,05,25,03,10,7.40
2012,05,25,03,11,7.30
2012,05,25,03,12,7.30
2012,05,25,03,13,7.30
2012,05,25,03,14,7.30
2012,05,25,03,15,7.30
2012,05,25,03,16,7.30
2012,05,25,03,17,7.30
2012,05,25,03,18,7.30
2012,05,25,03,19,7.30
2012,05,25,03,20,7.30
2012,05,25,03,21,7.20
2012,05,25,03,22,7.20
2012,05,25,03,23,7.20
2012,05,25,03,24,7.20
2012,05,25,03,25,7.20
2012,05,25,03,26,7.20
2012,05,25,03,27,7.10
2012,05,25,03,28,7.10
2012,05,25,03,29,7.10
2012,05,25,03,30,7.10
2012,05,25,03,31,7.10
2012,05,25,03,32,7.10
2012,05,25,03,33,7.10
2012,05,25,03,34,7.10
2012,05,25,03,35,7.10
2012,05,25,03,36,7.00
2012,05,25,03,37,7.00
2012,05,25,03,38,7.00
2012,05,25,03,39,7.00
2012,05,25,03,40,7.00
2012,05,25,03,41,7.00
2012,05,25,03,42,7.00
2012,05,25,03,43,7.00
2012,05,25,03,44,7.00
2012,05,25,03,45,7.00
2012,05,25,03,46,7.00
2012,05,25,03,47,7.00
2012,05,25,03,48,7.00
2012,05,25,03,49,7.00
2012,05,25,03,50,7.00
2012,05,25,03,51,7.00
2012,05,25,03,52,7.00
2012,05,25,03,53,7.00
2012,05,25,03,54,7.00
2012,05,25,03,55,7.00
2012,05,25,03,56,7.00
2012,05,25,03,57,7.00
2012,05,25,03,58,7.00
2012,05,25,03,59,6.90
2012,05,25,04,00,6.90
2012,05,25,04,01,6.90
2012,05,25,04,02,6.90
2012,05,25,04,03,6.90
2012,05,25,04,04,6.90
2012,05,25,04,05,6.80
2012,05,25,04,06,6.80
2012,05,25,04,07,6.80
2012,05,25,04,08,6.80
2012,05,25,04,09,6.80
2012,05,25,04,10,6.80
2012,05,25,04,11,6.80
2012,05,25,04,12,6.80
2012,05,25,04,13,6.80
2012,05,25,04,14,6.80
2012,05,25,04,15,6.80
2012,05,25,04,16,6.80
2012,05,25,04,17,6.80
2012,05,25,04,18,6.80
2012,05,25,04,19,6.70
2012,05,25,04,20,6.70
2012,05,25,04,21,6.70
2012,05,25,04,22,6.70
2012,05,25,04,23,6.70
2012,05,25,04,24,6.60
2012,05,25,04,25,6.60
2012,05,25,04,26,6.60
2012,05,25,04,27,6.60
2012,05,25,04,28,6.60
2012,05,25,04,29,6.50
2012,05,25,04,30,6.40
2012,05,25,04,31,6.40
2012,05,25,04,32,6.40
2012,05,25,04,33,6.40
2012,05,25,04,34,6.40
2012,05,25,04,35,6.40
2012,05,25,04,36,6.40
2012,05,25,04,37,6.40
2012,05,25,04,38,6.40
2012,05,25,04,39,6.40
2012,05,25,04,40,6.40
2012,05,25,04,41,6.40
2012,05,25,04,42,6.40
2012,05,25,04,43,6.40
2012,05,25,04,44,6.40
2012,05,25,04,45,6.40
2012,05,25,04,46,6.40
2012,05,25,04,47,6.40
2012,05,25,04,48,6.40
2012,05,25,04,49,6.40
2012,05,25,04,50,6.40
2012,05,25,04,51,6.40
2012,05,25,04,52,6.40
2012,05,25,04,53,6.40
2012,05,25,04,54,6.60
2012,05,25,04,55,6.60
2012,05,25,04,56,6.60
2012,05,25,04,57,6.60
2012,05,25,04,58,6.60
2012,05,25,04,59,6.60
2012,05,25,05,00,6.60
2012,05,25,05,01,6.60
2012,05,25,05,02,6.60
2012,05,25,05,03,6.60
2012,05,25,05,04,6.60
2012,05,25,05,05,6.60
2012,05,25,05,06,6.60
2012,05,25,05,07,6.60
2012,05,25,05,08,6.60
2012,05,25,05,09,6.60
2012,05,25,05,10,6.60
2012,05,25,05,11,6.60
2012,05,25,05,12,6.60
2012,05,25,05,13,6.60
2012,05,25,05,14,6.60
2012,05,25,05,15,6.60
2012,05,25,05,16,6.60
2012,05,25,05,17,6.60
2012,05,25,05,18,6.60
2012,05,25,05,19,6.60
2012,05,25,05,20,6.60
2012,05,25,05,21,6.60
2012,05,25,05,22,6.60
2012,05,25,05,23,6.60
2012,05,25,05,24,6.60
2012,05,25,05,25,6.60
2012,05,25,05,26,6.60
2012,05,25,05,27,6.60
2012,05,25,05,28,6.60
2012,05,25,05,29,6.60
2012,05,25,05,30,6.60
2012,05,25,05,31,6.60
2012,05,25,05,32,6.60
2012,05,25,05,33,6.60
2012,05,25,05,34,6.60
2012,05,25,05,35,6.60
2012,05,25,05,36,6.60
2012,05,25,05,37,6.60
2012,05,25,05,38,6.60
2012,05,25,05,39,6.60
2012,05,25,05,40,6.60
2012,05,25,05,41,6.60
2012,05,25,05,42,6.60
2012,05,25,05,43,6.60
2012,05,25,05,44,6.60
2012,05,25,05,45,6.60
2012,05,25,05,46,6.60
2012,05,25,05,47,6.60
2012,05,25,05,48,6.60
2012,05,25,05,49,6.60
2012,05,25,05,50,6.70
2012,05,25,05,51,6.70
2012,05,25,05,52,6.70
2012,05,25,05,53,6.70
2012,05,25,05,54,6.70
2012,05,25,05,55,6.70
2012,05,25,05,56,6.70
2012,05,25,05,57,6.70
2012,05,25,05,58,6.70
2012,05,25,05,59,6.70
2012,05,25,06,00,6.70
2012,05,25,06,01,6.70
2012,05,25,06,02,6.70
2012,05,25,06,03,6.70
2012,05,25,06,04,6.80
2012,05,25,06,05,6.80
2012,05,25,06,06,6.80
2012,05,25,06,07,6.80
2012,05,25,06,08,6.80
2012,05,25,06,09,6.80
2012,05,25,06,10,6.80
2012,05,25,06,11,6.80
2012,05,25,06,12,6.80
2012,05,25,06,13,6.80
2012,05,25,06,14,6.80
2012,05,25,06,15,6.90
2012,05,25,06,16,6.90
2012,05,25,06,17,7.00
2012,05,25,06,18,7.00
2012,05,25,06,19,7.10
2012,05,25,06,20,7.10
2012,05,25,06,21,7.10
2012,05,25,06,22,7.20
2012,05,25,06,23,7.20
2012,05,25,06,24,7.20
2012,05,25,06,25,7.30
2012,05,25,06,26,7.30
2012,05,25,06,27,7.30
2012,05,25,06,28,7.30
2012,05,25,06,29,7.30
2012,05,25,06,30,7.30
2012,05,25,06,31,7.30
2012,05,25,06,32,7.40
2012,05,25,06,33,7.40
2012,05,25,06,34,7.40
2012,05,25,06,35,7.50
2012,05,25,06,36,7.50
2012,05,25,06,37,7.60
2012,05,25,06,38,7.70
2012,05,25,06,39,7.70
2012,05,25,06,40,7.80
2012,05,25,06,41,7.80
2012,05,25,06,42,7.90
2012,05,25,06,43,7.90
2012,05,25,06,44,8.00
2012,05,25,06,45,8.00
2012,05,25,06,46,8.10
2012,05,25,06,47,8.20
2012,05,25,06,48,8.20
2012,05,25,06,49,8.30
2012,05,25,06,50,8.30
2012,05,25,06,51,8.40
2012,05,25,06,52,8.50
2012,05,25,06,53,8.50
2012,05,25,06,54,8.60
2012,05,25,06,55,8.70
2012,05,25,06,56,8.70
2012,05,25,06,57,8.80
2012,05,25,06,58,8.90
2012,05,25,06,59,9.00
2012,05,25,07,00,9.00
2012,05,25,07,01,9.10
2012,05,25,07,02,9.20
2012,05,25,07,03,9.20
2012,05,25,07,04,9.30
2012,05,25,07,05,9.40
2012,05,25,07,06,9.60
2012,05,25,07,07,9.70
2012,05,25,07,08,9.90
2012,05,25,07,09,10.10
2012,05,25,07,10,10.20
2012,05,25,07,11,10.30
2012,05,25,07,12,10.40
2012,05,25,07,13,10.60
2012,05,25,07,14,10.70
2012,05,25,07,15,10.80
2012,05,25,07,16,10.80
2012,05,25,07,17,10.90
2012,05,25,07,18,10.90
2012,05,25,07,19,11.10
2012,05,25,07,20,11.10
2012,05,25,07,21,11.30
2012,05,25,07,22,11.40
2012,05,25,07,23,11.50
2012,05,25,07,24,11.60
2012,05,25,07,25,11.70
2012,05,25,07,26,11.70
2012,05,25,07,27,11.80
2012,05,25,07,28,11.80
2012,05,25,07,29,11.80
2012,05,25,07,30,11.90
2012,05,25,07,31,11.90
2012,05,25,07,32,12.00
2012,05,25,07,33,12.00
2012,05,25,07,34,12.10
2012,05,25,07,35,12.20
2012,05,25,07,36,12.30
2012,05,25,07,37,12.30
2012,05,25,07,38,12.40
2012,05,25,07,39,12.50
2012,05,25,07,40,12.50
2012,05,25,07,41,12.60
2012,05,25,07,42,12.70
2012,05,25,07,43,12.80
2012,05,25,07,44,12.80
2012,05,25,07,45,12.90
2012,05,25,07,46,13.00
2012,05,25,07,47,13.00
2012,05,25,07,48,13.10
2012,05,25,07,49,13.10
2012,05,25,07,50,13.20
2012,05,25,07,51,13.20
2012,05,25,07,52,13.30
2012,05,25,07,53,13.30
2012,05,25,07,54,13.40
2012,05,25,07,55,13.40
2012,05,25,07,56,13.50
2012,05,25,07,57,13.50
2012,05,25,07,58,13.50
2012,05,25,07,59,13.60
2012,05,25,08,00,13.60
2012,05,25,08,01,13.70
2012,05,25,08,02,13.70
2012,05,25,08,03,13.70
2012,05,25,08,04,13.80
2012,05,25,08,05,13.80
2012,05,25,08,06,13.90
2012,05,25,08,07,13.90
2012,05,25,08,08,14.00
2012,05,25,08,09,14.10
2012,05,25,08,10,14.20
2012,05,25,08,11,14.30
2012,05,25,08,12,14.40
2012,05,25,08,13,14.50
2012,05,25,08,14,14.50
2012,05,25,08,15,14.60
2012,05,25,08,16,14.60
2012,05,25,08,17,14.60
2012,05,25,08,18,14.70
2012,05,25,08,19,14.80
2012,05,25,08,20,14.80
2012,05,25,08,21,14.90
2012,05,25,08,22,15.00
2012,05,25,08,23,15.00
2012,05,25,08,24,15.10
2012,05,25,08,25,15.10
2012,05,25,08,26,15.10
2012,05,25,08,27,15.20
2012,05,25,08,28,15.20
2012,05,25,08,29,15.20
2012,05,25,08,30,15.20
2012,05,25,08,31,15.20
2012,05,25,08,32,15.30
2012,05,25,08,33,15.30
2012,05,25,08,34,15.30
2012,05,25,08,35,15.40
2012,05,25,08,36,15.40
2012,05,25,08,37,15.50
2012,05,25,08,38,15.50
2012,05,25,08,39,15.60
2012,05,25,08,40,15.60
2012,05,25,08,41,15.60
2012,05,25,08,42,15.60
2012,05,25,08,43,15.60
2012,05,25,08,44,15.60
2012,05,25,08,45,15.60
2012,05,25,08,46,15.70
2012,05,25,08,47,15.80
2012,05,25,08,48,15.80
2012,05,25,08,49,15.90
2012,05,25,08,50,15.90
2012,05,25,08,51,16.00
2012,05,25,08,52,16.10
2012,05,25,08,53,16.10
2012,05,25,08,54,16.10
2012,05,25,08,55,16.20
2012,05,25,08,56,16.20
2012,05,25,08,57,16.20
2012,05,25,08,58,16.30
2012,05,25,08,59,16.30
2012,05,25,09,00,16.40
2012,05,25,09,01,16.40
2012,05,25,09,02,16.50
2012,05,25,09,03,16.60
2012,05,25,09,04,16.60
2012,05,25,09,05,16.60
2012,05,25,09,06,16.70
2012,05,25,09,07,16.60
2012,05,25,09,08,16.60
2012,05,25,09,09,16.60
2012,05,25,09,10,16.70
2012,05,25,09,11,16.70
2012,05,25,09,12,16.70
2012,05,25,09,13,16.80
2012,05,25,09,14,16.90
2012,05,25,09,15,16.90
2012,05,25,09,16,17.00
2012,05,25,09,17,17.10
2012,05,25,09,18,17.10
2012,05,25,09,19,17.20
2012,05,25,09,20,17.20
2012,05,25,09,21,17.30
2012,05,25,09,22,17.30
2012,05,25,09,23,17.30
2012,05,25,09,24,17.40
2012,05,25,09,25,17.40
2012,05,25,09,26,17.40
2012,05,25,09,27,17.40
2012,05,25,09,28,17.50
2012,05,25,09,29,17.40
2012,05,25,09,30,17.40
2012,05,25,09,31,17.30
2012,05,25,09,32,17.30
2012,05,25,09,33,17.30
2012,05,25,09,34,17.40
2012,05,25,09,35,17.40
2012,05,25,09,36,17.50
2012,05,25,09,37,17.60
2012,05,25,09,38,17.70
2012,05,25,09,39,17.80
2012,05,25,09,40,17.80
2012,05,25,09,41,17.90
2012,05,25,09,42,17.90
2012,05,25,09,43,17.90
2012,05,25,09,44,17.90
2012,05,25,09,45,17.90
2012,05,25,09,46,17.90
2012,05,25,09,47,18.00
2012,05,25,09,48,17.90
2012,05,25,09,49,17.90
2012,05,25,09,50,17.90
2012,05,25,09,51,17.90
2012,05,25,09,52,17.90
2012,05,25,09,53,17.90
2012,05,25,09,54,17.90
2012,05,25,09,55,17.90
2012,05,25,09,56,17.90
2012,05,25,09,57,17.90
2012,05,25,09,58,17.90
2012,05,25,09,59,17.90
2012,05,25,10,00,17.80
2012,05,25,10,01,17.80
2012,05,25,10,02,17.80
2012,05,25,10,03,17.80
2012,05,25,10,04,17.70
2012,05,25,10,05,17.70
2012,05,25,10,06,17.60
2012,05,25,10,07,17.60
2012,05,25,10,08,17.60
2012,05,25,10,09,17.60
2012,05,25,10,10,17.60
2012,05,25,10,11,17.70
2012,05,25,10,12,17.60
2012,05,25,10,13,17.60
2012,05,25,10,14,17.70
2012,05,25,10,15,17.70
2012,05,25,10,16,17.60
2012,05,25,10,17,17.60
2012,05,25,10,18,17.50
2012,05,25,10,19,17.50
2012,05,25,10,20,17.50
2012,05,25,10,21,17.60
2012,05,25,10,22,17.60
2012,05,25,10,23,17.60
2012,05,25,10,24,17.70
2012,05,25,10,25,17.70
2012,05,25,10,26,17.70
2012,05,25,10,27,17.70
2012,05,25,10,28,17.70
2012,05,25,10,29,17.70
2012,05,25,10,30,17.80
2012,05,25,10,31,17.80
2012,05,25,10,32,17.80
2012,05,25,10,33,17.80
2012,05,25,10,34,17.90
2012,05,25,10,35,17.90
2012,05,25,10,36,17.90
2012,05,25,10,37,17.90
2012,05,25,10,38,17.90
2012,05,25,10,39,17.90
2012,05,25,10,40,17.90
2012,05,25,10,41,17.80
2012,05,25,10,42,17.80
2012,05,25,10,43,17.80
2012,05,25,10,44,17.80
2012,05,25,10,45,17.80
2012,05,25,10,46,17.80
2012,05,25,10,47,17.80
2012,05,25,10,48,17.80
2012,05,25,10,49,17.90
2012,05,25,10,50,17.90
2012,05,25,10,51,17.90
2012,05,25,10,52,17.90
2012,05,25,10,53,18.10
2012,05,25,10,54,18.10
2012,05,25,10,55,18.20
2012,05,25,10,56,18.20
2012,05,25,10,57,18.20
2012,05,25,10,58,18.10
2012,05,25,10,59,18.00
2012,05,25,11,00,17.90
2012,05,25,11,01,17.80
2012,05,25,11,02,17.70
2012,05,25,11,03,17.80
2012,05,25,11,04,17.80
2012,05,25,11,05,17.80
2012,05,25,11,06,17.80
2012,05,25,11,07,17.80
2012,05,25,11,08,17.90
2012,05,25,11,09,17.90
2012,05,25,11,10,17.90
2012,05,25,11,11,18.00
2012,05,25,11,12,18.10
2012,05,25,11,13,18.20
2012,05,25,11,14,18.40
2012,05,25,11,15,18.40
2012,05,25,11,16,18.50
2012,05,25,11,17,18.60
2012,05,25,11,18,18.70
2012,05,25,11,19,18.70
2012,05,25,11,20,18.60
2012,05,25,11,21,18.60
2012,05,25,11,22,18.60
2012,05,25,11,23,18.50
2012,05,25,11,24,18.50
2012,05,25,11,25,18.50
2012,05,25,11,26,18.50
2012,05,25,11,27,18.50
2012,05,25,11,28,18.50
2012,05,25,11,29,18.60
2012,05,25,11,30,18.60
2012,05,25,11,31,18.60
2012,05,25,11,32,18.70
2012,05,25,11,33,18.80
2012,05,25,11,34,18.80
2012,05,25,11,35,18.80
2012,05,25,11,36,18.80
2012,05,25,11,37,18.80
2012,05,25,11,38,18.80
2012,05,25,11,39,18.70
2012,05,25,11,40,18.70
2012,05,25,11,41,18.60
2012,05,25,11,42,18.60
2012,05,25,11,43,18.60
2012,05,25,11,44,18.60
2012,05,25,11,45,18.70
2012,05,25,11,46,18.70
2012,05,25,11,47,18.80
2012,05,25,11,48,18.80
2012,05,25,11,49,18.80
2012,05,25,11,50,18.80
2012,05,25,11,51,18.80
2012,05,25,11,52,18.80
2012,05,25,11,53,18.90
2012,05,25,11,54,18.80
2012,05,25,11,55,18.80
2012,05,25,11,56,18.80
2012,05,25,11,57,18.90
2012,05,25,11,58,18.90
2012,05,25,11,59,19.00
2012,05,25,12,00,19.10
2012,05,25,12,01,19.10
2012,05,25,12,02,19.10
2012,05,25,12,03,19.10
2012,05,25,12,04,19.10
2012,05,25,12,05,19.10
2012,05,25,12,06,19.10
2012,05,25,12,07,19.20
2012,05,25,12,08,19.20
2012,05,25,12,09,19.30
2012,05,25,12,10,19.30
2012,05,25,12,11,19.40
2012,05,25,12,12,19.40
2012,05,25,12,13,19.50
2012,05,25,12,14,19.60
2012,05,25,12,15,19.70
2012,05,25,12,16,19.80
2012,05,25,12,17,19.80
2012,05,25,12,18,19.80
2012,05,25,12,19,19.80
2012,05,25,12,20,19.90
2012,05,25,12,21,20.00
2012,05,25,12,22,20.10
2012,05,25,12,23,20.20
2012,05,25,12,24,20.20
2012,05,25,12,25,20.20
2012,05,25,12,26,20.20
2012,05,25,12,27,20.20
2012,05,25,12,28,20.20
2012,05,25,12,29,20.20
2012,05,25,12,30,20.20
2012,05,25,12,31,20.20
2012,05,25,12,32,20.20
2012,05,25,12,33,20.20
2012,05,25,12,34,20.30
2012,05,25,12,35,20.30
2012,05,25,12,36,20.30
2012,05,25,12,37,20.20
2012,05,25,12,38,20.20
2012,05,25,12,39,20.20
2012,05,25,12,40,20.20
2012,05,25,12,41,20.10
2012,05,25,12,42,20.00
2012,05,25,12,43,19.90
2012,05,25,12,44,19.90
2012,05,25,12,45,19.80
2012,05,25,12,46,19.90
2012,05,25,12,47,19.90
2012,05,25,12,48,19.90
2012,05,25,12,49,19.90
2012,05,25,12,50,19.90
2012,05,25,12,51,19.90
2012,05,25,12,52,20.00
2012,05,25,12,53,20.10
2012,05,25,12,54,20.20
2012,05,25,12,55,20.20
2012,05,25,12,56,20.20
2012,05,25,12,57,20.20
2012,05,25,12,58,20.30
2012,05,25,12,59,20.30
2012,05,25,13,00,20.30
2012,05,25,13,01,20.30
2012,05,25,13,02,20.40
2012,05,25,13,03,20.40
2012,05,25,13,04,20.50
2012,05,25,13,05,20.50
2012,05,25,13,06,20.60
2012,05,25,13,07,20.70
2012,05,25,13,08,20.80
2012,05,25,13,09,20.90
2012,05,25,13,10,21.00
2012,05,25,13,11,21.00
2012,05,25,13,12,21.00
2012,05,25,13,13,21.10
2012,05,25,13,14,21.30
2012,05,25,13,15,21.30
2012,05,25,13,16,21.30
2012,05,25,13,17,21.30
2012,05,25,13,18,21.30
2012,05,25,13,19,21.30
2012,05,25,13,20,21.30
2012,05,25,13,21,21.40
2012,05,25,13,22,21.60
2012,05,25,13,23,21.60
2012,05,25,13,24,21.70
2012,05,25,13,25,21.70
2012,05,25,13,26,21.70
2012,05,25,13,27,21.80
2012,05,25,13,28,21.80
2012,05,25,13,29,21.70
2012,05,25,13,30,21.70
2012,05,25,13,31,21.70
2012,05,25,13,32,21.60
2012,05,25,13,33,21.60
2012,05,25,13,34,21.60
2012,05,25,13,35,21.70
2012,05,25,13,36,21.70
2012,05,25,13,37,21.80
2012,05,25,13,38,21.80
2012,05,25,13,39,21.80
2012,05,25,13,40,21.70
2012,05,25,13,41,21.70
2012,05,25,13,42,21.60
2012,05,25,13,43,21.50
2012,05,25,13,44,21.40
2012,05,25,13,45,21.40
2012,05,25,13,46,21.60
2012,05,25,13,47,21.60
2012,05,25,13,48,21.60
2012,05,25,13,49,21.70
2012,05,25,13,50,21.70
2012,05,25,13,51,21.80
2012,05,25,13,52,21.80
2012,05,25,13,53,21.80
2012,05,25,13,54,21.70
2012,05,25,13,55,21.60
2012,05,25,13,56,21.60
2012,05,25,13,57,21.50
2012,05,25,13,58,21.40
2012,05,25,13,59,21.40
2012,05,25,14,00,21.40
2012,05,25,14,01,21.40
2012,05,25,14,02,21.50
2012,05,25,14,03,21.60
2012,05,25,14,04,21.60
2012,05,25,14,05,21.60
2012,05,25,14,06,21.70
2012,05,25,14,07,21.80
2012,05,25,14,08,21.90
2012,05,25,14,09,21.90
2012,05,25,14,10,21.90
2012,05,25,14,11,21.80
2012,05,25,14,12,21.80
2012,05,25,14,13,21.80
2012,05,25,14,14,21.80
2012,05,25,14,15,21.80
2012,05,25,14,16,21.90
2012,05,25,14,17,22.00
2012,05,25,14,18,22.00
2012,05,25,14,19,22.10
2012,05,25,14,20,22.20
2012,05,25,14,21,22.20
2012,05,25,14,22,22.30
2012,05,25,14,23,22.40
2012,05,25,14,24,22.50
2012,05,25,14,25,22.50
2012,05,25,14,26,22.50
2012,05,25,14,27,22.60
2012,05,25,14,28,22.60
2012,05,25,14,29,22.70
2012,05,25,14,30,22.80
2012,05,25,14,31,22.90
2012,05,25,14,32,22.90
2012,05,25,14,33,23.00
2012,05,25,14,34,23.10
2012,05,25,14,35,23.10
2012,05,25,14,36,23.00
2012,05,25,14,37,22.90
2012,05,25,14,38,22.90
2012,05,25,14,39,22.80
2012,05,25,14,40,22.80
2012,05,25,14,41,22.90
2012,05,25,14,42,22.90
2012,05,25,14,43,22.90
2012,05,25,14,44,23.00
2012,05,25,14,45,23.10
2012,05,25,14,46,23.20
2012,05,25,14,47,23.20
2012,05,25,14,48,23.30
2012,05,25,14,49,23.30
2012,05,25,14,50,23.30
2012,05,25,14,51,23.30
2012,05,25,14,52,23.30
2012,05,25,14,53,23.40
2012,05,25,14,54,23.40
2012,05,25,14,55,23.40
2012,05,25,14,56,23.60
2012,05,25,14,57,23.50
2012,05,25,14,58,23.40
2012,05,25,14,59,23.30
2012,05,25,15,00,23.30
2012,05,25,15,01,23.30
2012,05,25,15,02,23.20
2012,05,25,15,03,23.20
2012,05,25,15,04,23.10
2012,05,25,15,05,23.10
2012,05,25,15,06,23.10
2012,05,25,15,07,23.10
2012,05,25,15,08,23.20
2012,05,25,15,09,23.20
2012,05,25,15,10,23.10
2012,05,25,15,11,23.00
2012,05,25,15,12,22.90
2012,05,25,15,13,22.90
2012,05,25,15,14,22.90
2012,05,25,15,15,22.90
2012,05,25,15,16,22.90
2012,05,25,15,17,22.90
2012,05,25,15,18,22.90
2012,05,25,15,19,22.90
2012,05,25,15,20,22.90
2012,05,25,15,21,22.90
2012,05,25,15,22,22.90
2012,05,25,15,23,22.90
2012,05,25,15,24,22.90
2012,05,25,15,25,22.90
2012,05,25,15,26,23.10
2012,05,25,15,27,23.10
2012,05,25,15,28,23.20
2012,05,25,15,29,23.20
2012,05,25,15,30,23.20
2012,05,25,15,31,23.20
2012,05,25,15,32,23.20
2012,05,25,15,33,23.10
2012,05,25,15,34,23.20
2012,05,25,15,35,23.20
2012,05,25,15,36,23.30
2012,05,25,15,37,23.30
2012,05,25,15,38,23.30
2012,05,25,15,39,23.40
2012,05,25,15,40,23.40
2012,05,25,15,41,23.40
2012,05,25,15,42,23.40
2012,05,25,15,43,23.40
2012,05,25,15,44,23.30
2012,05,25,15,45,23.30
2012,05,25,15,46,23.30
2012,05,25,15,47,23.30
2012,05,25,15,48,23.30
2012,05,25,15,49,23.30
2012,05,25,15,50,23.40
2012,05,25,15,51,23.50
2012,05,25,15,52,23.60
2012,05,25,15,53,23.70
2012,05,25,15,54,23.70
2012,05,25,15,55,23.60
2012,05,25,15,56,23.60
2012,05,25,15,57,23.60
2012,05,25,15,58,23.50
2012,05,25,15,59,23.40
2012,05,25,16,00,23.30
2012,05,25,16,01,23.30
2012,05,25,16,02,23.30
2012,05,25,16,03,23.30
2012,05,25,16,04,23.30
2012,05,25,16,05,23.40
2012,05,25,16,06,23.40
2012,05,25,16,07,23.50
2012,05,25,16,08,23.60
2012,05,25,16,09,23.70
2012,05,25,16,10,23.70
2012,05,25,16,11,23.70
2012,05,25,16,12,23.70
2012,05,25,16,13,23.70
2012,05,25,16,14,23.70
2012,05,25,16,15,23.70
2012,05,25,16,16,23.80
2012,05,25,16,17,23.90
2012,05,25,16,18,23.90
2012,05,25,16,19,24.00
2012,05,25,16,20,24.10
2012,05,25,16,21,24.10
2012,05,25,16,22,24.20
2012,05,25,16,23,24.20
2012,05,25,16,24,24.20
2012,05,25,16,25,24.20
2012,05,25,16,26,24.20
2012,05,25,16,27,24.00
2012,05,25,16,28,23.80
2012,05,25,16,29,23.70
2012,05,25,16,30,23.70
2012,05,25,16,31,23.70
2012,05,25,16,32,23.70
2012,05,25,16,33,23.70
2012,05,25,16,34,23.70
2012,05,25,16,35,23.70
2012,05,25,16,36,23.70
2012,05,25,16,37,23.80
2012,05,25,16,38,23.90
2012,05,25,16,39,24.00
2012,05,25,16,40,24.10
2012,05,25,16,41,24.10
2012,05,25,16,42,24.10
2012,05,25,16,43,24.10
2012,05,25,16,44,24.10
2012,05,25,16,45,24.10
2012,05,25,16,46,24.10
2012,05,25,16,47,24.10
2012,05,25,16,48,24.20
2012,05,25,16,49,24.20
2012,05,25,16,50,24.20
2012,05,25,16,51,24.20
2012,05,25,16,52,24.10
2012,05,25,16,53,23.90
2012,05,25,16,54,23.70
2012,05,25,16,55,23.60
2012,05,25,16,56,23.60
2012,05,25,16,57,23.50
2012,05,25,16,58,23.30
2012,05,25,16,59,23.30
2012,05,25,17,00,23.30
2012,05,25,17,01,23.40
2012,05,25,17,02,23.40
2012,05,25,17,03,23.40
2012,05,25,17,04,23.40
2012,05,25,17,05,23.30
2012,05,25,17,06,23.30
2012,05,25,17,07,23.30
2012,05,25,17,08,23.30
2012,05,25,17,09,23.30
2012,05,25,17,10,23.30
2012,05,25,17,11,23.30
2012,05,25,17,12,23.30
2012,05,25,17,13,23.30
2012,05,25,17,14,23.30
2012,05,25,17,15,23.40
2012,05,25,17,16,23.50
2012,05,25,17,17,23.60
2012,05,25,17,18,23.70
2012,05,25,17,19,23.70
2012,05,25,17,20,23.70
2012,05,25,17,21,23.70
2012,05,25,17,22,23.70
2012,05,25,17,23,23.70
2012,05,25,17,24,23.70
2012,05,25,17,25,23.60
2012,05,25,17,26,23.50
2012,05,25,17,27,23.40
2012,05,25,17,28,23.30
2012,05,25,17,29,23.30
2012,05,25,17,30,23.40
2012,05,25,17,31,23.40
2012,05,25,17,32,23.30
2012,05,25,17,33,23.30
2012,05,25,17,34,23.30
2012,05,25,17,35,23.20
2012,05,25,17,36,23.20
2012,05,25,17,37,23.10
2012,05,25,17,38,23.00